Location: Del Oro Observatory
(38.3044°N, 104.8119°W)
Time: 08:00:15
(UTC-07:00)

Cosmos 1602 Rocket - Visible Passes

Search period start: 02 March 2015 00:00
Search period end: 12 March 2015 01:00
Orbit: 606 x 634 km, 82.5° (Epoch: 02 March)

Date Brightness Start Highest point End Pass type
(mag) Time Alt. Az. Time Alt. Az. Time Alt. Az.
02 Mar 6.5 05:29:30 10° SE 05:32:53 22° E 05:36:23 10° NE visible
02 Mar 7.5 18:57:51 10° W 18:58:17 10° W 18:58:24 10° W visible
03 Mar 5.1 05:46:10 10° SSE 05:50:20 42° E 05:54:35 10° NNE visible
05 Mar 7.1 04:46:11 10° ESE 04:48:00 13° E 04:50:04 10° ENE visible
06 Mar 6.2 05:01:52 10° SE 05:05:24 24° E 05:09:02 10° NE visible
07 Mar 4.8 05:18:37 10° SSE 05:22:51 45° E 05:27:10 10° NNE visible
08 Mar 3.6 06:35:55 10° S 06:40:23 90° E 06:44:54 10° N visible
09 Mar 6.8 05:18:21 10° ESE 05:20:29 14° E 05:22:52 10° NE visible
10 Mar 5.9 05:34:14 10° SE 05:37:53 26° E 05:41:39 10° NNE visible
11 Mar 4.6 05:51:04 10° SSE 05:55:22 49° E 05:59:43 10° NNE visible
